| time (UTC) | temp F | wind direction | speed knots | gust knots | rain 1hr in | rain 24hr in | rain mn in | humidity % | barometer mb |
| 20260506154533 | 56 | 291 | 0.0 | 0.9 | 0.00 | 0.01 | 0.00 | 78 | 1019.5 |
| 20260506153031 | 56 | 172 | 0.0 | 0.9 | 0.00 | 0.01 | 0.00 | 82 | 1019.5 |
| 20260506151528 | 54 | 132 | 0.0 | 0.9 | 0.00 | 0.01 | 0.00 | 87 | 1019.5 |
| 20260506150022 | 51 | 158 | 0.0 | 0.9 | 0.00 | 0.01 | 0.00 | 96 | 1019.6 |
| 20260506144522 | 48 | 158 | 0.0 | 0.9 | 0.00 | 0.01 | 0.00 | 96 | 1019.6 |
| 20260506143019 | 47 | 148 | 0.0 | 0.9 | 0.00 | 0.01 | 0.00 | 96 | 1019.3 |
| 20260506141518 | 47 | 149 | 0.0 | 1.7 | 0.00 | 0.01 | 0.00 | 96 | 1019.4 |
| 20260506140018 | 47 | 111 | 0.0 | 0.9 | 0.00 | 0.01 | 0.00 | 96 | 1019.3 |
| 20260506134517 | 47 | 92 | 0.0 | 0.9 | 0.00 | 0.01 | 0.00 | 96 | 1019.2 |
| 20260506133016 | 47 | 91 | 0.0 | 0.9 | 0.00 | 0.01 | 0.00 | 96 | 1018.9 |
| 20260506131523 | 47 | 86 | 0.0 | 0.9 | 0.00 | 0.01 | 0.00 | 96 | 1019.0 |
| 20260506130012 | 47 | 86 | 0.0 | 0.9 | 0.00 | 0.01 | 0.00 | 96 | 1018.9 |
| 20260506124511 | 47 | 79 | 0.0 | 0.9 | 0.00 | 0.03 | 0.00 | 96 | 1018.7 |
| 20260506123011 | 47 | 79 | 0.0 | 0.9 | 0.00 | 0.03 | 0.00 | 96 | 1018.6 |
| 20260506121509 | 47 | 133 | 0.0 | 0.9 | 0.00 | 0.03 | 0.00 | 96 | 1018.6 |
| 20260506120017 | 47 | 132 | 0.0 | 0.9 | 0.00 | 0.03 | 0.00 | 96 | 1018.5 |
| 20260506114518 | 47 | 135 | 0.0 | 0.9 | 0.00 | 0.05 | 0.00 | 96 | 1018.5 |
| 20260506113021 | 47 | 136 | 0.0 | 1.7 | 0.00 | 0.05 | 0.00 | 96 | 1018.4 |
| 20260506111507 | 47 | 133 | 0.0 | 0.9 | 0.00 | 0.05 | 0.00 | 96 | 1018.4 |
| 20260506110008 | 47 | 136 | 0.0 | 0.9 | 0.00 | 0.05 | 0.00 | 96 | 1018.2 |
| 20260506104504 | 47 | 136 | 0.0 | 0.0 | 0.00 | 0.08 | 0.00 | 96 | 1018.1 |
| 20260506103008 | 47 | 88 | 0.0 | 0.0 | 0.00 | 0.08 | 0.00 | 96 | 1017.9 |
| 20260506101501 | 48 | 79 | 0.0 | 0.0 | 0.00 | 0.08 | 0.00 | 96 | 1017.8 |
| 20260506100100 | 48 | 79 | 0.0 | 0.0 | 0.00 | 0.08 | 0.00 | 96 | 1017.6 |
| 20260506094558 | 48 | 79 | 0.0 | 0.0 | 0.00 | 0.09 | 0.00 | 96 | 1017.6 |
| 20260506093058 | 48 | 79 | 0.0 | 0.0 | 0.00 | 0.09 | 0.00 | 96 | 1017.5 |
| 20260506091600 | 48 | 79 | 0.0 | 0.0 | 0.00 | 0.09 | 0.00 | 96 | 1017.5 |
| 20260506090101 | 48 | 79 | 0.0 | 0.0 | 0.00 | 0.09 | 0.00 | 96 | 1017.5 |
| 20260506084602 | 48 | 79 | 0.0 | 0.0 | 0.00 | 0.09 | 0.00 | 96 | 1017.6 |
| 20260506083053 | 49 | 79 | 0.0 | 0.0 | 0.00 | 0.09 | 0.00 | 96 | 1017.7 |
| 20260506081554 | 49 | 79 | 0.0 | 0.0 | 0.00 | 0.09 | 0.00 | 96 | 1017.8 |
| 20260506073048 | 49 | 79 | 0.0 | 0.0 | 0.00 | 0.11 | 0.00 | 96 | 1018.1 |
| 20260506071545 | 48 | 78 | 0.0 | 0.0 | 0.00 | 0.11 | 0.00 | 96 | 1017.6 |
| 20260506061544 | 49 | 77 | 0.0 | 0.0 | 0.00 | 0.23 | 0.11 | 96 | 1017.1 |
| 20260506044537 | 49 | 79 | 0.0 | 0.0 | 0.00 | 0.27 | 0.11 | 95 | 1016.5 |
| 20260506043034 | 49 | 79 | 0.0 | 0.0 | 0.00 | 0.27 | 0.11 | 95 | 1016.4 |
| 20260506041533 | 48 | 79 | 0.0 | 0.0 | 0.00 | 0.27 | 0.11 | 95 | 1016.3 |
| 20260506040037 | 48 | 79 | 0.0 | 0.0 | 0.00 | 0.27 | 0.11 | 95 | 1016.0 |
| 20260506034542 | 48 | 3 | 0.0 | 0.0 | 0.00 | 0.28 | 0.11 | 94 | 1015.9 |
| 20260506033032 | 49 | 4 | 0.0 | 0.0 | 0.00 | 0.28 | 0.11 | 94 | 1015.5 |
| 20260506031531 | 50 | 4 | 0.0 | 0.0 | 0.00 | 0.28 | 0.11 | 94 | 1015.2 |
| 20260506030037 | 50 | 3 | 0.0 | 0.0 | 0.00 | 0.28 | 0.11 | 94 | 1015.3 |
| 20260506024553 | 50 | 4 | 0.0 | 0.0 | 0.00 | 0.28 | 0.11 | 93 | 1015.4 |
| 20260506023023 | 50 | 3 | 0.0 | 0.0 | 0.01 | 0.28 | 0.11 | 93 | 1015.2 |
| 20260506021524 | 50 | 3 | 0.0 | 0.0 | 0.01 | 0.28 | 0.11 | 93 | 1015.2 |
| 20260506020023 | 50 | 4 | 0.0 | 0.0 | 0.01 | 0.28 | 0.11 | 93 | 1015.1 |
| 20260506014521 | 50 | 3 | 0.0 | 0.9 | 0.01 | 0.28 | 0.11 | 93 | 1015.2 |
| 20260506013033 | 50 | 4 | 0.0 | 0.0 | 0.00 | 0.27 | 0.10 | 93 | 1015.1 |
| 20260506011520 | 50 | 3 | 0.0 | 0.9 | 0.00 | 0.27 | 0.10 | 93 | 1015.1 |
| 20260506010021 | 50 | 3 | 0.0 | 0.0 | 0.00 | 0.27 | 0.10 | 93 | 1014.9 |
| 20260506004517 | 50 | 3 | 0.0 | 0.9 | 0.00 | 0.27 | 0.10 | 93 | 1014.9 |
| 20260506003019 | 51 | 4 | 0.0 | 0.9 | 0.00 | 0.27 | 0.10 | 92 | 1014.9 |
| 20260506001520 | 51 | 4 | 0.0 | 0.0 | 0.00 | 0.27 | 0.10 | 92 | 1014.7 |
| 20260506000017 | 51 | 4 | 0.0 | 0.9 | 0.00 | 0.27 | 0.10 | 92 | 1014.6 |
| 20260505234516 | 51 | 4 | 0.0 | 0.9 | 0.00 | 0.28 | 0.10 | 92 | 1014.6 |
| 20260505233018 | 51 | 3 | 0.0 | 0.9 | 0.00 | 0.28 | 0.10 | 91 | 1014.5 |
| 20260505231514 | 51 | 4 | 0.0 | 0.9 | 0.00 | 0.28 | 0.10 | 91 | 1014.4 |
| 20260505230033 | 51 | 4 | 0.0 | 0.9 | 0.00 | 0.28 | 0.10 | 92 | 1014.4 |
| 20260505224513 | 51 | 3 | 0.0 | 0.9 | 0.00 | 0.31 | 0.10 | 92 | 1014.4 |
| 20260505223011 | 51 | 4 | 0.0 | 0.0 | 0.00 | 0.31 | 0.10 | 91 | 1014.5 |
| 20260505221511 | 51 | 4 | 0.0 | 0.9 | 0.00 | 0.31 | 0.10 | 91 | 1014.6 |
| 20260505220010 | 51 | 1 | 0.0 | 0.0 | 0.00 | 0.31 | 0.10 | 91 | 1014.6 |
| 20260505214511 | 50 | 1 | 0.0 | 0.9 | 0.00 | 0.45 | 0.10 | 90 | 1014.7 |
| 20260505213011 | 50 | 18 | 0.0 | 0.9 | 0.00 | 0.45 | 0.10 | 90 | 1014.7 |
| 20260505211510 | 51 | 34 | 0.0 | 0.9 | 0.00 | 0.45 | 0.10 | 89 | 1014.7 |
| 20260505210009 | 50 | 19 | 0.0 | 0.0 | 0.00 | 0.45 | 0.10 | 90 | 1014.7 |
| 20260505204508 | 50 | 19 | 0.0 | 0.0 | 0.00 | 0.55 | 0.10 | 90 | 1014.6 |
| 20260505203009 | 50 | 13 | 0.0 | 0.0 | 0.00 | 0.55 | 0.10 | 90 | 1014.7 |
| 20260505201509 | 50 | 360 | 0.0 | 0.0 | 0.00 | 0.55 | 0.10 | 90 | 1014.6 |
| 20260505200018 | 51 | 360 | 0.0 | 0.0 | 0.00 | 0.55 | 0.10 | 90 | 1014.6 |
| 20260505194507 | 51 | 352 | 0.0 | 0.0 | 0.00 | 0.55 | 0.10 | 90 | 1014.6 |
| 20260505193009 | 51 | 352 | 0.0 | 0.0 | 0.00 | 0.55 | 0.10 | 91 | 1014.6 |
| 20260505191504 | 50 | 20 | 0.0 | 0.0 | 0.00 | 0.55 | 0.10 | 89 | 1014.4 |
| 20260505190003 | 50 | 18 | 0.0 | 0.0 | 0.00 | 0.55 | 0.10 | 90 | 1014.3 |
| 20260505184503 | 50 | 22 | 0.0 | 0.0 | 0.00 | 0.55 | 0.10 | 90 | 1014.3 |
| 20260505183003 | 51 | 23 | 0.0 | 0.0 | 0.00 | 0.55 | 0.10 | 89 | 1014.3 |
| 20260505181502 | 51 | 281 | 0.0 | 0.0 | 0.00 | 0.55 | 0.10 | 87 | 1014.2 |
| 20260505180104 | 51 | 8 | 0.0 | 0.9 | 0.00 | 0.55 | 0.10 | 88 | 1014.0 |
| 20260505174600 | 52 | 297 | 0.0 | 0.9 | 0.00 | 0.57 | 0.10 | 87 | 1013.7 |
| 20260505173059 | 52 | 15 | 0.0 | 0.9 | 0.00 | 0.57 | 0.10 | 87 | 1013.8 |
| 20260505171557 | 52 | 345 | 0.0 | 1.7 | 0.00 | 0.57 | 0.10 | 87 | 1013.7 |
| 20260505170057 | 52 | 8 | 0.0 | 0.9 | 0.00 | 0.57 | 0.10 | 88 | 1013.8 |
| 20260505164601 | 52 | 193 | 0.0 | 0.9 | 0.00 | 0.59 | 0.10 | 92 | 1013.7 |
| 20260505163056 | 50 | 246 | 0.0 | 1.7 | 0.00 | 0.59 | 0.10 | 96 | 1013.6 |
| 20260505161547 | 48 | 8 | 0.0 | 0.9 | 0.00 | 0.59 | 0.10 | 96 | 1013.5 |